Regional Weather Roundup
Issued by NWS

Home | Current Version | Previous Version | Graphics & Text | Print | Product List | Glossary On
Versions: 1 2 3 4 5 6 7 8 9 10 11 12 13 14 15 16 17 18 19 20 21 22 23 24 25 26 27 28 29 30 31 32 33 34 35 36 37 38 39 40 41 42 43 44 45 46 47 48 49 50
000
ASUS45 KBOI 090010
RWRID

IDAHO REGIONAL WEATHER ROUNDUP
NATIONAL WEATHER SERVICE BOISE ID
500 PM MST THU DEC 08 2016

NOTE: "FAIR" INDICATES FEW OR NO CLOUDS BELOW 12000 FEET
WITH NO SIGNIFICANT WEATHER AND/OR OBSTRUCTIONS TO VISIBILITY

IDZ012-014-090100-
SOUTHWEST IDAHO


CITY           SKY/WX    TMP DP  RH WIND       PRES   REMARKS
BOISE          CLOUDY    25  22  88 SE12      30.09F FOG     WCI  14
CALDWELL       LGT SNOW  25  22  88 SE20      30.12F FOG     WCI  11
MOUNTAIN HOME  LGT SNOW  25  23  92 SE23      30.11F FOG     WCI   9
$$

IDZ016-017-090100-
SOUTHCENTRAL IDAHO


CITY           SKY/WX    TMP DP  RH WIND       PRES   REMARKS
BURLEY         SNOW      19  17  92 NE13      30.09S VSB 1/2 WCI   6
JEROME         LGT SNOW  19  16  88 NE23      30.09F VSB 3/4 WCI   2
TWIN FALLS     SNOW      19  16  88 NE13      30.09S VSB 1/4 WCI   6
$$

IDZ019>023-090100-
SOUTHEAST IDAHO


CITY           SKY/WX    TMP DP  RH WIND       PRES   REMARKS
IDAHO FALLS    LGT SNOW  17  12  80 N9        30.15F VSB 1   WCI   6
POCATELLO      LGT SNOW  20  17  88 NE6       30.13F WCI  12
REXBURG        LGT SNOW  15  12  88 NE6       30.14F FOG     WCI   6
$$

IDZ006-010-011-018-031-032-090100-
CENTRAL IDAHO MOUNTAINS


CITY           SKY/WX    TMP DP  RH WIND       PRES   REMARKS
MCCALL         LGT SNOW  12   8  84 CALM      29.95F FOG
HAILEY         SNOW      18  16  93 NW7       30.09S VSB 1/2 WCI   8
STANLEY          N/A      2  -3  80 CALM      30.00S
SALMON         CLOUDY    12   3  67 CALM      30.14S
CHALLIS        LGT SNOW  10   7  87 CALM      30.09S FOG
$$

IDZ002-004-006-007-026-090100-
NORTHERN IDAHO


CITY           SKY/WX    TMP DP  RH WIND       PRES   REMARKS
LEWISTON       CLOUDY    23  14  68 CALM      30.14F
LOWELL           N/A     24  17  74 NE3       30.20F
COEUR D`ALENE  PTCLDY    18   7  62 N14       30.17R WCI   4
MULLAN PASS    CLOUDY     1  -3  83 VRB5      29.92F WCI  -9
$$



USA.gov is the U.S. government's official web portal to all federal, state and local government web resources and services.